Location: Boleita
(10.4833°N, 66.8167°W)
Time: 02:08:28
(UTC+00:00)

GPS 2-17 Rocket1 - Pass Details

Date: 08 November 2025
Orbit: 546 x 617 km, 20.3° (Epoch: 08 December)

Event Time Altitude Azimuth Distance (km) Brightness Sun altitude
Exits shadow 09:52:21 - 308° (NW) 2,009 5.1 -7.4°
Reaches altitude 10° 09:53:01 10° 313° (NW) 1,799 4.9 -7.3°
Maximum altitude 09:56:16 22° 4° (N) 1,219 4.5 -6.5°
Drops below altitude 10° 09:59:31 10° 56° (NE) 1,796 6.1 -5.7°
Sets 10:02:12 0° 72° (ENE) 2,692 7.4 -5.1°
